Time,TemperatureF,DewpointF,PressureIn,WindDirection,WindDirectionDegrees,WindSpeedMPH,WindSpeedGustMPH,Humidity,HourlyPrecipIn,Conditions,Clouds,dailyrainin,SoftwareType,DateUTC
2013-09-08 00:01:00,73.6,43.5,29.78,NNW,331,0.0,2.0,34,0.00,,,0.00,WeatherCatV1.21B27,2013-09-08 07:01:00,
2013-09-08 00:06:00,73.6,43.5,29.78,NNW,335,0.0,2.0,34,0.00,,,0.00,WeatherCatV1.21B27,2013-09-08 07:06:00,
2013-09-08 00:11:00,73.6,43.5,29.78,NNW,335,0.0,0.0,34,0.00,,,0.00,WeatherCatV1.21B27,2013-09-08 07:11:00,
2013-09-08 00:16:00,73.5,43.4,29.78,NNW,335,0.0,1.0,34,0.00,,,0.00,WeatherCatV1.21B27,2013-09-08 07:16:00,
2013-09-08 00:21:00,73.2,43.9,29.78,NNW,337,0.0,0.0,35,0.00,,,0.00,WeatherCatV1.21B27,2013-09-08 07:21:00,
2013-09-08 00:26:00,73.0,43.7,29.78,NNW,337,0.0,0.0,35,0.00,,,0.00,WeatherCatV1.21B27,2013-09-08 07:26:00,
2013-09-08 00:31:00,72.8,43.5,29.79,NNW,337,0.0,0.0,35,0.00,,,0.00,WeatherCatV1.21B27,2013-09-08 07:31:00,
2013-09-08 00:36:00,72.6,43.4,29.79,NNW,337,0.0,0.0,35,0.00,,,0.00,WeatherCatV1.21B27,2013-09-08 07:36:00,
2013-09-08 00:41:00,72.4,43.2,29.79,NNW,337,0.0,0.0,35,0.00,,,0.00,WeatherCatV1.21B27,2013-09-08 07:41:00,
2013-09-08 00:46:00,72.2,43.0,29.78,NNW,337,0.0,0.0,35,0.00,,,0.00,WeatherCatV1.21B27,2013-09-08 07:46:00,
2013-09-08 00:51:00,72.1,42.9,29.78,NNW,337,0.0,0.0,35,0.00,,,0.00,WeatherCatV1.21B27,2013-09-08 07:51:00,
2013-09-08 00:56:00,72.1,43.7,29.78,NNW,337,0.0,0.0,36,0.00,,,0.00,WeatherCatV1.21B27,2013-09-08 07:56:00,
2013-09-08 01:01:00,71.9,43.5,29.79,NNW,337,0.0,0.0,36,0.00,,,0.00,WeatherCatV1.21B27,2013-09-08 08:01:00,
2013-09-08 01:06:00,71.8,43.4,29.79,NNW,337,0.0,0.0,36,0.00,,,0.00,WeatherCatV1.21B27,2013-09-08 08:06:00,
2013-09-08 01:11:00,71.7,43.3,29.79,NNW,337,0.0,0.0,36,0.00,,,0.00,WeatherCatV1.21B27,2013-09-08 08:11:00,
2013-09-08 01:16:00,71.5,43.1,29.78,NNW,337,0.0,0.0,36,0.00,,,0.00,WeatherCatV1.21B27,2013-09-08 08:16:00,
2013-09-08 01:21:00,71.3,43.7,29.78,NNW,337,0.0,0.0,37,0.00,,,0.00,WeatherCatV1.21B27,2013-09-08 08:21:00,
2013-09-08 01:26:00,71.0,43.4,29.78,NNW,337,0.0,0.0,37,0.00,,,0.00,WeatherCatV1.21B27,2013-09-08 08:26:00,
2013-09-08 01:31:00,70.9,43.3,29.78,NNW,337,0.0,0.0,37,0.00,,,0.00,WeatherCatV1.21B27,2013-09-08 08:31:00,
2013-09-08 01:36:00,70.9,43.3,29.78,NNW,337,0.0,1.0,37,0.00,,,0.00,WeatherCatV1.21B27,2013-09-08 08:36:00,
2013-09-08 01:41:00,70.8,43.9,29.78,NNW,337,0.0,0.0,38,0.00,,,0.00,WeatherCatV1.21B27,2013-09-08 08:41:00,
2013-09-08 01:46:00,70.7,43.8,29.78,NNW,337,0.0,0.0,38,0.00,,,0.00,WeatherCatV1.21B27,2013-09-08 08:46:00,
2013-09-08 01:51:00,70.6,45.1,29.78,NNW,337,0.0,0.0,40,0.00,,,0.00,WeatherCatV1.21B27,2013-09-08 08:51:00,
2013-09-08 01:56:00,70.5,45.0,29.78,NNW,337,0.0,0.0,40,0.00,,,0.00,WeatherCatV1.21B27,2013-09-08 08:56:00,
2013-09-08 02:01:00,70.4,45.6,29.78,NNW,337,0.0,0.0,41,0.00,,,0.00,WeatherCatV1.21B27,2013-09-08 09:01:00,
2013-09-08 02:06:00,70.3,45.5,29.78,NNW,337,0.0,0.0,41,0.00,,,0.00,WeatherCatV1.21B27,2013-09-08 09:06:00,
2013-09-08 02:11:00,70.2,44.7,29.78,NNW,337,0.0,0.0,40,0.00,,,0.00,WeatherCatV1.21B27,2013-09-08 09:11:00,
2013-09-08 02:16:00,70.0,45.2,29.78,NNW,337,0.0,0.0,41,0.00,,,0.00,WeatherCatV1.21B27,2013-09-08 09:16:00,
2013-09-08 02:21:00,69.9,45.8,29.78,NNW,337,0.0,0.0,42,0.00,,,0.00,WeatherCatV1.21B27,2013-09-08 09:21:00,
2013-09-08 02:26:00,69.8,45.7,29.78,NNW,337,0.0,1.0,42,0.00,,,0.00,WeatherCatV1.21B27,2013-09-08 09:26:00,
2013-09-08 02:31:00,69.7,45.6,29.78,NNW,337,0.0,0.0,42,0.00,,,0.00,WeatherCatV1.21B27,2013-09-08 09:31:00,
2013-09-08 02:36:00,69.6,45.5,29.78,NNW,337,0.0,0.0,42,0.00,,,0.00,WeatherCatV1.21B27,2013-09-08 09:36:00,
2013-09-08 02:41:00,69.7,45.6,29.78,NNW,337,0.0,0.0,42,0.00,,,0.00,WeatherCatV1.21B27,2013-09-08 09:41:00,
2013-09-08 02:46:00,69.7,45.6,29.78,NNW,337,0.0,0.0,42,0.00,,,0.00,WeatherCatV1.21B27,2013-09-08 09:46:00,
2013-09-08 02:51:00,69.8,45.7,29.78,NNW,337,0.0,0.0,42,0.00,,,0.00,WeatherCatV1.21B27,2013-09-08 09:51:00,
2013-09-08 02:56:00,69.8,45.7,29.78,NNW,337,0.0,0.0,42,0.00,,,0.00,WeatherCatV1.21B27,2013-09-08 09:56:00,
2013-09-08 03:01:00,69.8,45.7,29.77,NNW,337,0.0,0.0,42,0.00,,,0.00,WeatherCatV1.21B27,2013-09-08 10:01:00,
2013-09-08 03:06:00,69.8,45.7,29.77,NNW,337,0.0,0.0,42,0.00,,,0.00,WeatherCatV1.21B27,2013-09-08 10:06:00,
2013-09-08 03:11:00,69.8,45.7,29.77,NNW,337,0.0,0.0,42,0.00,,,0.00,WeatherCatV1.21B27,2013-09-08 10:11:00,
2013-09-08 03:16:00,69.8,45.7,29.77,NNW,337,0.0,0.0,42,0.00,,,0.00,WeatherCatV1.21B27,2013-09-08 10:16:00,
2013-09-08 03:21:00,69.8,45.7,29.77,NNW,337,0.0,0.0,42,0.00,,,0.00,WeatherCatV1.21B27,2013-09-08 10:21:00,
2013-09-08 03:26:00,69.7,45.6,29.77,NNW,337,0.0,0.0,42,0.00,,,0.00,WeatherCatV1.21B27,2013-09-08 10:26:00,
2013-09-08 03:31:00,69.7,45.6,29.77,NNW,337,0.0,0.0,42,0.00,,,0.00,WeatherCatV1.21B27,2013-09-08 10:31:00,
2013-09-08 03:36:00,69.7,45.6,29.77,NNW,337,0.0,0.0,42,0.00,,,0.00,WeatherCatV1.21B27,2013-09-08 10:36:00,
2013-09-08 03:41:00,69.7,45.6,29.77,NNW,337,0.0,0.0,42,0.00,,,0.00,WeatherCatV1.21B27,2013-09-08 10:41:00,
2013-09-08 03:46:00,69.7,45.6,29.77,NNW,337,0.0,0.0,42,0.00,,,0.00,WeatherCatV1.21B27,2013-09-08 10:46:00,
2013-09-08 03:51:00,69.6,45.5,29.77,NNW,337,0.0,0.0,42,0.00,,,0.00,WeatherCatV1.21B27,2013-09-08 10:51:00,
2013-09-08 03:56:00,69.6,45.5,29.77,NNW,337,0.0,0.0,42,0.00,,,0.00,WeatherCatV1.21B27,2013-09-08 10:56:00,
2013-09-08 04:01:00,69.6,45.5,29.77,NNW,337,0.0,0.0,42,0.00,,,0.00,WeatherCatV1.21B27,2013-09-08 11:01:00,
2013-09-08 04:06:00,69.6,45.5,29.77,NNW,337,0.0,0.0,42,0.00,,,0.00,WeatherCatV1.21B27,2013-09-08 11:06:00,
2013-09-08 04:11:00,69.6,45.5,29.77,NNW,337,0.0,0.0,42,0.00,,,0.00,WeatherCatV1.21B27,2013-09-08 11:11:00,
2013-09-08 04:16:00,69.5,45.4,29.77,NNW,337,0.0,0.0,42,0.00,,,0.00,WeatherCatV1.21B27,2013-09-08 11:16:00,
2013-09-08 04:21:00,69.5,45.4,29.77,NNW,337,0.0,0.0,42,0.00,,,0.00,WeatherCatV1.21B27,2013-09-08 11:21:00,
2013-09-08 04:26:00,69.5,45.4,29.77,NNW,337,0.0,0.0,42,0.00,,,0.00,WeatherCatV1.21B27,2013-09-08 11:26:00,
2013-09-08 04:31:00,69.5,44.8,29.77,NNW,337,0.0,0.0,41,0.00,,,0.00,WeatherCatV1.21B27,2013-09-08 11:31:00,
2013-09-08 04:36:00,69.5,44.1,29.77,NNW,337,0.0,0.0,40,0.00,,,0.00,WeatherCatV1.21B27,2013-09-08 11:36:00,
2013-09-08 04:41:00,69.6,44.2,29.77,NNW,337,0.0,0.0,40,0.00,,,0.00,WeatherCatV1.21B27,2013-09-08 11:41:00,
2013-09-08 04:47:00,69.6,44.2,29.77,NNW,337,0.0,0.0,40,0.00,,,0.00,WeatherCatV1.21B27,2013-09-08 11:47:00,
2013-09-08 04:52:00,69.7,44.3,29.77,NNW,337,0.0,0.0,40,0.00,,,0.00,WeatherCatV1.21B27,2013-09-08 11:52:00,
2013-09-08 04:57:00,69.7,44.3,29.77,NNW,337,0.0,0.0,40,0.00,,,0.00,WeatherCatV1.21B27,2013-09-08 11:57:00,
2013-09-08 05:02:00,69.8,44.4,29.77,NNW,337,0.0,0.0,40,0.00,,,0.00,WeatherCatV1.21B27,2013-09-08 12:02:00,
2013-09-08 05:07:00,69.8,44.4,29.77,NNW,337,0.0,0.0,40,0.00,,,0.00,WeatherCatV1.21B27,2013-09-08 12:07:00,
2013-09-08 05:12:00,69.9,44.5,29.77,NNW,337,0.0,0.0,40,0.00,,,0.00,WeatherCatV1.21B27,2013-09-08 12:12:00,
2013-09-08 05:17:00,69.9,45.1,29.77,NNW,337,0.0,0.0,41,0.00,,,0.00,WeatherCatV1.21B27,2013-09-08 12:17:00,
2013-09-08 05:22:00,69.9,45.1,29.77,NNW,337,0.0,0.0,41,0.00,,,0.00,WeatherCatV1.21B27,2013-09-08 12:22:00,
2013-09-08 05:27:00,69.8,45.0,29.77,NNW,337,0.0,0.0,41,0.00,,,0.00,WeatherCatV1.21B27,2013-09-08 12:27:00,
2013-09-08 05:32:00,69.7,44.9,29.77,NNW,337,0.0,0.0,41,0.00,,,0.00,WeatherCatV1.21B27,2013-09-08 12:32:00,
2013-09-08 05:37:00,69.6,44.8,29.77,NNW,337,0.0,0.0,41,0.00,,,0.00,WeatherCatV1.21B27,2013-09-08 12:37:00,
2013-09-08 05:42:00,69.5,44.8,29.77,NNW,337,0.0,0.0,41,0.00,,,0.00,WeatherCatV1.21B27,2013-09-08 12:42:00,
2013-09-08 05:47:00,69.5,44.8,29.76,NNW,337,0.0,0.0,41,0.00,,,0.00,WeatherCatV1.21B27,2013-09-08 12:47:00,
2013-09-08 05:52:00,69.4,44.7,29.76,NNW,337,0.0,0.0,41,0.00,,,0.00,WeatherCatV1.21B27,2013-09-08 12:52:00,
2013-09-08 05:57:00,69.4,44.0,29.76,NNW,337,0.0,0.0,40,0.00,,,0.00,WeatherCatV1.21B27,2013-09-08 12:57:00,
2013-09-08 06:02:00,69.4,44.0,29.77,NNW,337,0.0,0.0,40,0.00,,,0.00,WeatherCatV1.21B27,2013-09-08 13:02:00,
2013-09-08 06:07:00,69.4,44.7,29.77,NNW,337,0.0,0.0,41,0.00,,,0.00,WeatherCatV1.21B27,2013-09-08 13:07:00,
2013-09-08 06:12:00,69.4,44.7,29.77,NNW,337,0.0,0.0,41,0.00,,,0.00,WeatherCatV1.21B27,2013-09-08 13:12:00,
2013-09-08 06:16:00,69.4,44.7,29.77,NNW,337,0.0,0.0,41,0.00,,,0.00,WeatherCatV1.21B27,2013-09-08 13:16:00,
2013-09-08 06:21:00,69.3,44.6,29.77,NNW,337,0.0,0.0,41,0.00,,,0.00,WeatherCatV1.21B27,2013-09-08 13:21:00,
2013-09-08 06:26:00,69.2,43.8,29.77,NNW,337,0.0,0.0,40,0.00,,,0.00,WeatherCatV1.21B27,2013-09-08 13:26:00,
2013-09-08 06:31:00,69.1,44.4,29.77,NNW,337,0.0,0.0,41,0.00,,,0.00,WeatherCatV1.21B27,2013-09-08 13:31:00,
2013-09-08 06:36:00,69.1,44.4,29.77,NNW,337,0.0,0.0,41,0.00,,,0.00,WeatherCatV1.21B27,2013-09-08 13:36:00,
2013-09-08 06:42:00,69.0,44.9,29.77,NNW,337,0.0,0.0,42,0.00,,,0.00,WeatherCatV1.21B27,2013-09-08 13:42:00,
2013-09-08 06:47:00,68.8,44.8,29.77,NNW,337,0.0,0.0,42,0.00,,,0.00,WeatherCatV1.21B27,2013-09-08 13:47:00,
2013-09-08 06:52:00,68.7,44.7,29.77,NNW,337,0.0,0.0,42,0.00,,,0.00,WeatherCatV1.21B27,2013-09-08 13:52:00,
2013-09-08 06:57:00,68.7,44.7,29.77,NNW,337,0.0,0.0,42,0.00,,,0.00,WeatherCatV1.21B27,2013-09-08 13:57:00,
2013-09-08 07:02:00,68.6,44.6,29.77,NNW,337,0.0,0.0,42,0.00,,,0.00,WeatherCatV1.21B27,2013-09-08 14:02:00,
2013-09-08 07:07:00,68.6,44.6,29.77,NNW,337,0.0,0.0,42,0.00,,,0.00,WeatherCatV1.21B27,2013-09-08 14:07:00,
2013-09-08 07:12:00,68.6,44.6,29.77,NNW,337,0.0,0.0,42,0.00,,,0.00,WeatherCatV1.21B27,2013-09-08 14:12:00,
2013-09-08 07:17:00,68.6,44.6,29.77,NNW,337,0.0,0.0,42,0.00,,,0.00,WeatherCatV1.21B27,2013-09-08 14:17:00,
2013-09-08 07:22:00,68.6,45.2,29.77,NNW,337,0.0,0.0,43,0.00,,,0.00,WeatherCatV1.21B27,2013-09-08 14:22:00,
2013-09-08 07:27:00,68.6,45.2,29.77,NNW,337,0.0,0.0,43,0.00,,,0.00,WeatherCatV1.21B27,2013-09-08 14:27:00,
2013-09-08 07:32:00,68.7,45.3,29.77,NNW,337,0.0,0.0,43,0.00,,,0.00,WeatherCatV1.21B27,2013-09-08 14:32:00,
2013-09-08 07:37:00,68.9,45.5,29.77,NNW,337,0.0,0.0,43,0.00,,,0.00,WeatherCatV1.21B27,2013-09-08 14:37:00,
2013-09-08 07:42:00,68.9,45.5,29.77,NNW,337,0.0,0.0,43,0.00,,,0.00,WeatherCatV1.21B27,2013-09-08 14:42:00,
2013-09-08 07:47:00,69.1,45.7,29.77,NNW,337,0.0,0.0,43,0.00,,,0.00,WeatherCatV1.21B27,2013-09-08 14:47:00,
2013-09-08 07:52:00,69.3,46.4,29.77,NNW,337,0.0,0.0,44,0.00,,,0.00,WeatherCatV1.21B27,2013-09-08 14:52:00,
2013-09-08 07:57:00,69.5,46.0,29.77,NNW,337,0.0,0.0,43,0.00,,,0.00,WeatherCatV1.21B27,2013-09-08 14:57:00,
2013-09-08 08:02:00,69.7,46.2,29.77,NNW,337,0.0,0.0,43,0.00,,,0.00,WeatherCatV1.21B27,2013-09-08 15:02:00,
2013-09-08 08:07:00,70.2,46.6,29.77,NNW,337,0.0,0.0,43,0.00,,,0.00,WeatherCatV1.21B27,2013-09-08 15:07:00,
2013-09-08 08:12:00,70.6,46.4,29.77,NNW,337,0.0,0.0,42,0.00,,,0.00,WeatherCatV1.21B27,2013-09-08 15:12:00,
2013-09-08 08:17:00,71.1,45.5,29.77,NNW,337,0.0,0.0,40,0.00,,,0.00,WeatherCatV1.21B27,2013-09-08 15:17:00,
2013-09-08 08:22:00,71.5,45.9,29.77,NNW,337,0.0,0.0,40,0.00,,,0.00,WeatherCatV1.21B27,2013-09-08 15:22:00,
2013-09-08 08:27:00,72.0,46.3,29.77,NNW,337,0.0,0.0,40,0.00,,,0.00,WeatherCatV1.21B27,2013-09-08 15:27:00,
2013-09-08 08:32:00,72.4,46.7,29.78,NNW,337,0.0,0.0,40,0.00,,,0.00,WeatherCatV1.21B27,2013-09-08 15:32:00,
2013-09-08 08:37:00,72.8,49.0,29.78,NNW,337,0.0,1.0,43,0.00,,,0.00,WeatherCatV1.21B27,2013-09-08 15:37:00,
2013-09-08 08:42:00,73.0,49.2,29.78,NNW,337,0.0,0.0,43,0.00,,,0.00,WeatherCatV1.21B27,2013-09-08 15:42:00,
2013-09-08 08:47:00,73.3,49.4,29.78,NNW,337,0.0,0.0,43,0.00,,,0.00,WeatherCatV1.21B27,2013-09-08 15:47:00,
2013-09-08 08:52:00,73.6,49.7,29.78,NNW,337,0.0,0.0,43,0.00,,,0.00,WeatherCatV1.21B27,2013-09-08 15:52:00,
2013-09-08 08:57:00,73.8,50.5,29.78,NNW,337,0.0,0.0,44,0.00,,,0.00,WeatherCatV1.21B27,2013-09-08 15:57:00,
2013-09-08 09:02:00,74.1,50.8,29.78,NNW,337,0.0,0.0,44,0.00,,,0.00,WeatherCatV1.21B27,2013-09-08 16:02:00,
2013-09-08 09:07:00,74.5,51.1,29.78,NNW,337,0.0,0.0,44,0.00,,,0.00,WeatherCatV1.21B27,2013-09-08 16:07:00,
2013-09-08 09:12:00,74.9,51.5,29.78,NNW,337,0.0,2.0,44,0.00,,,0.00,WeatherCatV1.21B27,2013-09-08 16:12:00,
2013-09-08 09:17:00,75.1,51.1,29.78,NNW,337,0.0,0.0,43,0.00,,,0.00,WeatherCatV1.21B27,2013-09-08 16:17:00,
2013-09-08 09:22:00,75.3,51.2,29.78,NNW,337,1.0,1.0,43,0.00,,,0.00,WeatherCatV1.21B27,2013-09-08 16:22:00,
2013-09-08 09:27:00,75.4,52.6,29.78,NNW,337,1.0,1.0,45,0.00,,,0.00,WeatherCatV1.21B27,2013-09-08 16:27:00,
2013-09-08 09:32:00,75.5,52.0,29.78,NNW,337,0.0,0.0,44,0.00,,,0.00,WeatherCatV1.21B27,2013-09-08 16:32:00,
2013-09-08 09:37:00,75.8,52.9,29.78,NNW,338,0.0,0.0,45,0.00,,,0.00,WeatherCatV1.21B27,2013-09-08 16:37:00,
2013-09-08 09:42:00,76.0,53.1,29.78,NNW,338,0.0,1.0,45,0.00,,,0.00,WeatherCatV1.21B27,2013-09-08 16:42:00,
2013-09-08 09:47:00,76.3,52.8,29.78,NNW,338,0.0,0.0,44,0.00,,,0.00,WeatherCatV1.21B27,2013-09-08 16:47:00,
2013-09-08 09:52:00,76.8,53.2,29.78,East,80,1.0,1.0,44,0.00,,,0.00,WeatherCatV1.21B27,2013-09-08 16:52:00,
2013-09-08 09:57:00,77.2,53.6,29.78,East,86,0.0,0.0,44,0.00,,,0.00,WeatherCatV1.21B27,2013-09-08 16:57:00,
2013-09-08 10:02:00,77.8,54.1,29.78,East,90,0.0,1.0,44,0.00,,,0.00,WeatherCatV1.21B27,2013-09-08 17:02:00,
2013-09-08 10:07:00,78.2,54.5,29.78,East,96,0.0,1.0,44,0.00,,,0.00,WeatherCatV1.21B27,2013-09-08 17:07:00,
2013-09-08 10:12:00,78.7,54.3,29.78,ESE,102,0.0,1.0,43,0.00,,,0.00,WeatherCatV1.21B27,2013-09-08 17:12:00,
2013-09-08 10:17:00,78.8,53.7,29.78,SSE,152,0.0,2.0,42,0.00,,,0.00,WeatherCatV1.21B27,2013-09-08 17:17:00,
2013-09-08 10:22:00,78.8,54.4,29.78,ESE,117,0.0,2.0,43,0.00,,,0.00,WeatherCatV1.21B27,2013-09-08 17:22:00,
2013-09-08 10:27:00,78.7,54.3,29.78,SE,140,0.0,1.0,43,0.00,,,0.00,WeatherCatV1.21B27,2013-09-08 17:27:00,
2013-09-08 10:32:00,78.7,54.9,29.78,SE,146,0.0,2.0,44,0.00,,,0.00,WeatherCatV1.21B27,2013-09-08 17:32:00,
2013-09-08 10:37:00,78.8,55.0,29.78,SE,146,0.0,0.0,44,0.00,,,0.00,WeatherCatV1.21B27,2013-09-08 17:37:00,
2013-09-08 10:42:00,79.1,54.7,29.78,SE,146,0.0,1.0,43,0.00,,,0.00,WeatherCatV1.21B27,2013-09-08 17:42:00,
2013-09-08 10:47:00,79.6,54.5,29.78,SE,146,0.0,2.0,42,0.00,,,0.00,WeatherCatV1.21B27,2013-09-08 17:47:00,
2013-09-08 10:52:00,80.2,55.0,29.78,SE,146,0.0,1.0,42,0.00,,,0.00,WeatherCatV1.21B27,2013-09-08 17:52:00,
2013-09-08 10:57:00,80.7,55.5,29.78,SE,146,1.0,1.0,42,0.00,,,0.00,WeatherCatV1.21B27,2013-09-08 17:57:00,
2013-09-08 11:02:00,81.1,55.8,29.78,SSE,151,0.0,2.0,42,0.00,,,0.00,WeatherCatV1.21B27,2013-09-08 18:02:00,
2013-09-08 11:07:00,81.6,55.6,29.78,SSE,149,0.0,1.0,41,0.00,,,0.00,WeatherCatV1.21B27,2013-09-08 18:07:00,
2013-09-08 11:12:00,82.1,56.0,29.78,SSE,150,2.0,2.0,41,0.00,,,0.00,WeatherCatV1.21B27,2013-09-08 18:12:00,
2013-09-08 11:17:00,82.5,56.4,29.78,SSE,150,0.0,1.0,41,0.00,,,0.00,WeatherCatV1.21B27,2013-09-08 18:17:00,
2013-09-08 11:22:00,82.9,56.8,29.78,SSE,149,0.0,1.0,41,0.00,,,0.00,WeatherCatV1.21B27,2013-09-08 18:22:00,
2013-09-08 11:27:00,83.2,57.0,29.78,SSE,156,1.0,1.0,41,0.00,,,0.00,WeatherCatV1.21B27,2013-09-08 18:27:00,
2013-09-08 11:32:00,83.3,57.1,29.78,SSE,152,1.0,2.0,41,0.00,,,0.00,WeatherCatV1.21B27,2013-09-08 18:32:00,
2013-09-08 11:37:00,83.1,56.9,29.78,SSE,158,2.0,2.0,41,0.00,,,0.00,WeatherCatV1.21B27,2013-09-08 18:37:00,
2013-09-08 11:42:00,83.4,56.5,29.78,SSE,152,1.0,2.0,40,0.00,,,0.00,WeatherCatV1.21B27,2013-09-08 18:42:00,
2013-09-08 11:47:00,83.5,56.6,29.78,SSE,154,2.0,2.0,40,0.00,,,0.00,WeatherCatV1.21B27,2013-09-08 18:47:00,
2013-09-08 11:52:00,83.7,56.8,29.78,SSE,151,0.0,0.0,40,0.00,,,0.00,WeatherCatV1.21B27,2013-09-08 18:52:00,
2013-09-08 11:57:00,84.3,57.3,29.78,SE,140,0.0,3.0,40,0.00,,,0.00,WeatherCatV1.21B27,2013-09-08 18:57:00,
2013-09-08 12:02:00,84.7,57.7,29.78,SE,138,1.0,1.0,40,0.00,,,0.00,WeatherCatV1.21B27,2013-09-08 19:02:00,
2013-09-08 12:07:00,84.9,56.4,29.78,SE,137,0.0,2.0,38,0.00,,,0.00,WeatherCatV1.21B27,2013-09-08 19:07:00,
2013-09-08 12:12:00,84.8,57.8,29.78,SSE,152,1.0,3.0,40,0.00,,,0.00,WeatherCatV1.21B27,2013-09-08 19:12:00,
2013-09-08 12:17:00,85.2,57.4,29.78,SSE,151,0.0,2.0,39,0.00,,,0.00,WeatherCatV1.21B27,2013-09-08 19:17:00,
2013-09-08 12:22:00,86.0,58.1,29.78,SE,143,1.0,1.0,39,0.00,,,0.00,WeatherCatV1.21B27,2013-09-08 19:22:00,
2013-09-08 12:27:00,86.4,57.8,29.78,SE,144,1.0,2.0,38,0.00,,,0.00,WeatherCatV1.21B27,2013-09-08 19:27:00,
2013-09-08 12:32:00,86.9,58.2,29.78,SE,144,0.0,2.0,38,0.00,,,0.00,WeatherCatV1.21B27,2013-09-08 19:32:00,
2013-09-08 12:37:00,87.3,58.5,29.78,SE,140,1.0,3.0,38,0.00,,,0.00,WeatherCatV1.21B27,2013-09-08 19:37:00,
2013-09-08 12:42:00,87.2,58.5,29.78,SSE,148,1.0,1.0,38,0.00,,,0.00,WeatherCatV1.21B27,2013-09-08 19:42:00,
2013-09-08 12:47:00,87.5,58.7,29.78,SSE,148,1.0,2.0,38,0.00,,,0.00,WeatherCatV1.21B27,2013-09-08 19:47:00,
2013-09-08 12:52:00,87.7,58.9,29.78,South,173,0.0,1.0,38,0.00,,,0.00,WeatherCatV1.21B27,2013-09-08 19:52:00,
2013-09-08 12:57:00,87.5,58.7,29.78,SSE,148,1.0,3.0,38,0.00,,,0.00,WeatherCatV1.21B27,2013-09-08 19:57:00,
2013-09-08 13:02:00,87.4,59.4,29.78,SE,146,2.0,2.0,39,0.00,,,0.00,WeatherCatV1.21B27,2013-09-08 20:02:00,
2013-09-08 13:07:00,87.6,59.5,29.78,SSE,153,2.0,3.0,39,0.00,,,0.00,WeatherCatV1.21B27,2013-09-08 20:07:00,
2013-09-08 13:12:00,87.7,58.9,29.78,SE,145,0.0,3.0,38,0.00,,,0.00,WeatherCatV1.21B27,2013-09-08 20:12:00,
2013-09-08 13:17:00,87.8,59.7,29.77,SE,142,0.0,0.0,39,0.00,,,0.00,WeatherCatV1.21B27,2013-09-08 20:17:00,
2013-09-08 13:22:00,88.2,59.3,29.77,SSE,154,1.0,3.0,38,0.00,,,0.00,WeatherCatV1.21B27,2013-09-08 20:22:00,
2013-09-08 13:27:00,88.0,59.2,29.77,SSE,159,0.0,2.0,38,0.00,,,0.00,WeatherCatV1.21B27,2013-09-08 20:27:00,
2013-09-08 13:32:00,88.0,59.2,29.77,South,170,0.0,2.0,38,0.00,,,0.00,WeatherCatV1.21B27,2013-09-08 20:32:00,
2013-09-08 13:37:00,88.0,59.2,29.77,SSE,147,1.0,3.0,38,0.00,,,0.00,WeatherCatV1.21B27,2013-09-08 20:37:00,
2013-09-08 13:42:00,87.7,58.9,29.77,SE,143,2.0,3.0,38,0.00,,,0.00,WeatherCatV1.21B27,2013-09-08 20:42:00,
2013-09-08 13:47:00,87.2,58.5,29.77,SE,146,0.0,2.0,38,0.00,,,0.00,WeatherCatV1.21B27,2013-09-08 20:47:00,
2013-09-08 13:52:00,87.1,59.1,29.77,SE,144,0.0,1.0,39,0.00,,,0.00,WeatherCatV1.21B27,2013-09-08 20:52:00,
2013-09-08 13:57:00,87.4,58.6,29.77,SE,145,0.0,2.0,38,0.00,,,0.00,WeatherCatV1.21B27,2013-09-08 20:57:00,
2013-09-08 14:02:00,87.3,59.3,29.76,ESE,121,0.0,0.0,39,0.00,,,0.00,WeatherCatV1.21B27,2013-09-08 21:02:00,
2013-09-08 14:07:00,87.4,58.6,29.76,SE,146,2.0,2.0,38,0.00,,,0.00,WeatherCatV1.21B27,2013-09-08 21:07:00,
2013-09-08 14:12:00,87.4,58.6,29.76,SE,142,1.0,3.0,38,0.00,,,0.00,WeatherCatV1.21B27,2013-09-08 21:12:00,
2013-09-08 14:17:00,86.9,58.9,29.76,SSE,156,0.0,1.0,39,0.00,,,0.00,WeatherCatV1.21B27,2013-09-08 21:17:00,
2013-09-08 14:22:00,86.8,58.8,29.76,SE,138,0.0,1.0,39,0.00,,,0.00,WeatherCatV1.21B27,2013-09-08 21:22:00,
2013-09-08 14:27:00,86.8,58.8,29.76,SE,138,0.0,1.0,39,0.00,,,0.00,WeatherCatV1.21B27,2013-09-08 21:27:00,
2013-09-08 14:32:00,86.6,58.7,29.76,SE,138,1.0,2.0,39,0.00,,,0.00,WeatherCatV1.21B27,2013-09-08 21:32:00,
2013-09-08 14:37:00,86.3,59.1,29.76,SE,138,1.0,2.0,40,0.00,,,0.00,WeatherCatV1.21B27,2013-09-08 21:37:00,
2013-09-08 14:42:00,86.1,58.2,29.76,SE,136,0.0,1.0,39,0.00,,,0.00,WeatherCatV1.21B27,2013-09-08 21:42:00,
2013-09-08 14:47:00,85.7,58.6,29.76,SSE,160,0.0,2.0,40,0.00,,,0.00,WeatherCatV1.21B27,2013-09-08 21:47:00,
2013-09-08 14:52:00,85.0,57.9,29.76,SE,135,1.0,2.0,40,0.00,,,0.00,WeatherCatV1.21B27,2013-09-08 21:52:00,
2013-09-08 14:57:00,84.3,58.0,29.76,SSE,158,0.0,1.0,41,0.00,,,0.00,WeatherCatV1.21B27,2013-09-08 21:57:00,
2013-09-08 15:02:00,84.2,57.9,29.76,SE,146,0.0,2.0,41,0.00,,,0.00,WeatherCatV1.21B27,2013-09-08 22:02:00,
2013-09-08 15:07:00,84.1,57.8,29.76,SSE,147,1.0,2.0,41,0.00,,,0.00,WeatherCatV1.21B27,2013-09-08 22:07:00,
2013-09-08 15:12:00,84.0,58.4,29.76,SSE,147,0.0,2.0,42,0.00,,,0.00,WeatherCatV1.21B27,2013-09-08 22:12:00,
2013-09-08 15:17:00,84.1,57.8,29.75,SE,142,1.0,1.0,41,0.00,,,0.00,WeatherCatV1.21B27,2013-09-08 22:17:00,
2013-09-08 15:22:00,84.4,57.4,29.75,SE,142,0.0,2.0,40,0.00,,,0.00,WeatherCatV1.21B27,2013-09-08 22:22:00,
2013-09-08 15:27:00,84.5,57.5,29.75,SE,140,1.0,1.0,40,0.00,,,0.00,WeatherCatV1.21B27,2013-09-08 22:27:00,
2013-09-08 15:32:00,84.5,57.5,29.75,SE,146,0.0,0.0,40,0.00,,,0.00,WeatherCatV1.21B27,2013-09-08 22:32:00,
2013-09-08 15:37:00,84.6,56.9,29.75,SSE,161,0.0,1.0,39,0.00,,,0.00,WeatherCatV1.21B27,2013-09-08 22:37:00,
2013-09-08 15:42:00,84.5,56.8,29.75,SSE,157,0.0,1.0,39,0.00,,,0.00,WeatherCatV1.21B27,2013-09-08 22:42:00,
2013-09-08 15:47:00,84.5,56.8,29.75,SSE,148,0.0,1.0,39,0.00,,,0.00,WeatherCatV1.21B27,2013-09-08 22:47:00,
2013-09-08 15:52:00,84.3,56.6,29.75,SE,143,1.0,1.0,39,0.00,,,0.00,WeatherCatV1.21B27,2013-09-08 22:52:00,
2013-09-08 15:57:00,83.9,55.5,29.75,SSE,157,0.0,1.0,38,0.00,,,0.00,WeatherCatV1.21B27,2013-09-08 22:57:00,
2013-09-08 16:02:00,83.5,55.9,29.74,SSE,160,0.0,2.0,39,0.00,,,0.00,WeatherCatV1.21B27,2013-09-08 23:02:00,
2013-09-08 16:07:00,83.3,55.7,29.74,SSE,154,0.0,1.0,39,0.00,,,0.00,WeatherCatV1.21B27,2013-09-08 23:07:00,
2013-09-08 16:12:00,83.0,55.5,29.74,SSE,158,0.0,2.0,39,0.00,,,0.00,WeatherCatV1.21B27,2013-09-08 23:12:00,
2013-09-08 16:17:00,82.9,56.1,29.73,SSE,156,0.0,0.0,40,0.00,,,0.00,WeatherCatV1.21B27,2013-09-08 23:17:00,
2013-09-08 16:22:00,82.8,55.3,29.73,SSE,158,0.0,1.0,39,0.00,,,0.00,WeatherCatV1.21B27,2013-09-08 23:22:00,
2013-09-08 16:27:00,82.6,55.8,29.73,SSE,153,0.0,2.0,40,0.00,,,0.00,WeatherCatV1.21B27,2013-09-08 23:27:00,
2013-09-08 16:32:00,82.5,55.7,29.73,SSE,161,0.0,0.0,40,0.00,,,0.00,WeatherCatV1.21B27,2013-09-08 23:32:00,
2013-09-08 16:37:00,82.3,55.5,29.73,SSE,160,0.0,2.0,40,0.00,,,0.00,WeatherCatV1.21B27,2013-09-08 23:37:00,
2013-09-08 16:42:00,82.1,55.3,29.73,SSE,160,0.0,2.0,40,0.00,,,0.00,WeatherCatV1.21B27,2013-09-08 23:42:00,
2013-09-08 16:47:00,81.9,55.9,29.73,SSE,161,0.0,0.0,41,0.00,,,0.00,WeatherCatV1.21B27,2013-09-08 23:47:00,
2013-09-08 16:52:00,81.8,55.8,29.73,SSE,161,0.0,1.0,41,0.00,,,0.00,WeatherCatV1.21B27,2013-09-08 23:52:00,
2013-09-08 16:57:00,81.6,55.6,29.73,SSE,161,0.0,0.0,41,0.00,,,0.00,WeatherCatV1.21B27,2013-09-08 23:57:00,
2013-09-08 17:02:00,81.5,56.2,29.73,SSE,161,0.0,0.0,42,0.00,,,0.00,WeatherCatV1.21B27,2013-09-09 00:02:00,
2013-09-08 17:07:00,81.4,56.1,29.73,SSE,161,0.0,1.0,42,0.00,,,0.00,WeatherCatV1.21B27,2013-09-09 00:07:00,
2013-09-08 17:12:00,81.2,55.9,29.73,SSE,160,0.0,1.0,42,0.00,,,0.00,WeatherCatV1.21B27,2013-09-09 00:12:00,
2013-09-08 17:17:00,81.1,55.8,29.73,SSE,160,0.0,1.0,42,0.00,,,0.00,WeatherCatV1.21B27,2013-09-09 00:17:00,
2013-09-08 17:22:00,80.9,56.3,29.73,SSE,160,0.0,1.0,43,0.00,,,0.00,WeatherCatV1.21B27,2013-09-09 00:22:00,
2013-09-08 17:27:00,80.7,56.1,29.73,SSE,160,0.0,0.0,43,0.00,,,0.00,WeatherCatV1.21B27,2013-09-09 00:27:00,
2013-09-08 17:32:00,80.6,56.0,29.73,SSE,160,0.0,0.0,43,0.00,,,0.00,WeatherCatV1.21B27,2013-09-09 00:32:00,
2013-09-08 17:37:00,80.5,55.9,29.73,SSE,160,0.0,0.0,43,0.00,,,0.00,WeatherCatV1.21B27,2013-09-09 00:37:00,
2013-09-08 17:42:00,80.4,55.8,29.73,SSE,160,0.0,1.0,43,0.00,,,0.00,WeatherCatV1.21B27,2013-09-09 00:42:00,
2013-09-08 17:47:00,80.2,56.3,29.72,SSE,160,0.0,0.0,44,0.00,,,0.00,WeatherCatV1.21B27,2013-09-09 00:47:00,
2013-09-08 17:52:00,80.1,56.2,29.72,SSE,160,0.0,0.0,44,0.00,,,0.00,WeatherCatV1.21B27,2013-09-09 00:52:00,
2013-09-08 17:57:00,80.0,56.1,29.72,SSE,160,0.0,0.0,44,0.00,,,0.00,WeatherCatV1.21B27,2013-09-09 00:57:00,
2013-09-08 18:02:00,79.8,55.9,29.72,SSE,160,0.0,0.0,44,0.00,,,0.00,WeatherCatV1.21B27,2013-09-09 01:02:00,
2013-09-08 18:07:00,79.7,55.8,29.72,SSE,160,0.0,0.0,44,0.00,,,0.00,WeatherCatV1.21B27,2013-09-09 01:07:00,
2013-09-08 18:12:00,79.6,55.7,29.72,SSE,160,0.0,0.0,44,0.00,,,0.00,WeatherCatV1.21B27,2013-09-09 01:12:00,
2013-09-08 18:17:00,79.5,54.4,29.72,SSE,160,0.0,0.0,42,0.00,,,0.00,WeatherCatV1.21B27,2013-09-09 01:17:00,
2013-09-08 18:22:00,79.6,52.4,29.72,North,354,2.0,2.0,39,0.00,,,0.00,WeatherCatV1.21B27,2013-09-09 01:22:00,
2013-09-08 18:27:00,79.9,52.7,29.72,NNW,333,0.0,1.0,39,0.00,,,0.00,WeatherCatV1.21B27,2013-09-09 01:27:00,
2013-09-08 18:32:00,80.2,52.3,29.71,North,350,0.0,1.0,38,0.00,,,0.00,WeatherCatV1.21B27,2013-09-09 01:32:00,
2013-09-08 18:37:00,80.3,52.3,29.71,NNW,327,1.0,2.0,38,0.00,,,0.00,WeatherCatV1.21B27,2013-09-09 01:37:00,
2013-09-08 18:42:00,80.4,52.4,29.71,NNW,333,1.0,2.0,38,0.00,,,0.00,WeatherCatV1.21B27,2013-09-09 01:42:00,
2013-09-08 18:47:00,80.3,52.3,29.71,North,350,0.0,2.0,38,0.00,,,0.00,WeatherCatV1.21B27,2013-09-09 01:47:00,
2013-09-08 18:52:00,80.1,52.9,29.71,NNW,345,0.0,3.0,39,0.00,,,0.00,WeatherCatV1.21B27,2013-09-09 01:52:00,
2013-09-08 18:57:00,80.0,52.8,29.71,NNW,333,0.0,2.0,39,0.00,,,0.00,WeatherCatV1.21B27,2013-09-09 01:57:00,
2013-09-08 19:02:00,79.7,53.2,29.71,NNW,337,1.0,3.0,40,0.00,,,0.00,WeatherCatV1.21B27,2013-09-09 02:02:00,
2013-09-08 19:07:00,79.4,53.6,29.71,NNW,331,3.0,5.0,41,0.00,,,0.00,WeatherCatV1.21B27,2013-09-09 02:07:00,
2013-09-08 19:12:00,79.0,53.9,29.71,NNW,337,2.0,4.0,42,0.00,,,0.00,WeatherCatV1.21B27,2013-09-09 02:12:00,
2013-09-08 19:17:00,78.5,54.1,29.71,NNW,335,3.0,5.0,43,0.00,,,0.00,WeatherCatV1.21B27,2013-09-09 02:17:00,
2013-09-08 19:22:00,78.0,54.3,29.71,NNW,335,6.0,6.0,44,0.00,,,0.00,WeatherCatV1.21B27,2013-09-09 02:22:00,
2013-09-08 19:27:00,77.4,54.4,29.71,NNW,343,3.0,6.0,45,0.00,,,0.00,WeatherCatV1.21B27,2013-09-09 02:27:00,
2013-09-08 19:32:00,77.0,54.6,29.72,NNW,335,4.0,6.0,46,0.00,,,0.00,WeatherCatV1.21B27,2013-09-09 02:32:00,
2013-09-08 19:37:00,76.5,54.2,29.72,NNW,331,6.0,8.0,46,0.00,,,0.00,WeatherCatV1.21B27,2013-09-09 02:37:00,
2013-09-08 19:42:00,76.4,54.7,29.72,NW,314,7.0,7.0,47,0.00,,,0.00,WeatherCatV1.21B27,2013-09-09 02:42:00,
2013-09-08 19:47:00,76.1,53.8,29.71,NNW,335,3.0,6.0,46,0.00,,,0.00,WeatherCatV1.21B27,2013-09-09 02:47:00,
2013-09-08 19:52:00,75.9,53.0,29.71,NNW,338,3.0,5.0,45,0.00,,,0.00,WeatherCatV1.21B27,2013-09-09 02:52:00,
2013-09-08 19:57:00,76.1,52.0,29.71,NNW,328,3.0,7.0,43,0.00,,,0.00,WeatherCatV1.21B27,2013-09-09 02:57:00,
2013-09-08 20:02:00,76.8,52.6,29.71,NNW,335,3.0,4.0,43,0.00,,,0.00,WeatherCatV1.21B27,2013-09-09 03:02:00,
2013-09-08 20:07:00,76.9,50.7,29.71,NNW,337,4.0,5.0,40,0.00,,,0.00,WeatherCatV1.21B27,2013-09-09 03:07:00,
2013-09-08 20:12:00,77.4,50.5,29.71,NNW,347,3.0,4.0,39,0.00,,,0.00,WeatherCatV1.21B27,2013-09-09 03:12:00,
2013-09-08 20:17:00,78.1,49.0,29.71,NNW,345,2.0,6.0,36,0.00,,,0.00,WeatherCatV1.21B27,2013-09-09 03:17:00,
2013-09-08 20:22:00,78.8,48.8,29.71,NNW,333,0.0,4.0,35,0.00,,,0.00,WeatherCatV1.21B27,2013-09-09 03:22:00,
2013-09-08 20:27:00,79.0,49.0,29.71,NNW,331,1.0,2.0,35,0.00,,,0.00,WeatherCatV1.21B27,2013-09-09 03:27:00,
2013-09-08 20:32:00,79.1,48.3,29.72,NNW,331,2.0,2.0,34,0.00,,,0.00,WeatherCatV1.21B27,2013-09-09 03:32:00,
2013-09-08 20:37:00,79.2,48.4,29.72,NNW,331,0.0,0.0,34,0.00,,,0.00,WeatherCatV1.21B27,2013-09-09 03:37:00,
2013-09-08 20:42:00,79.2,48.4,29.72,NNW,331,0.0,0.0,34,0.00,,,0.00,WeatherCatV1.21B27,2013-09-09 03:42:00,
2013-09-08 20:47:00,79.0,48.2,29.72,NNW,331,0.0,0.0,34,0.00,,,0.00,WeatherCatV1.21B27,2013-09-09 03:47:00,
2013-09-08 20:52:00,78.8,47.2,29.72,NNW,331,0.0,0.0,33,0.00,,,0.00,WeatherCatV1.21B27,2013-09-09 03:52:00,
2013-09-08 20:57:00,78.6,47.1,29.72,NNW,331,0.0,0.0,33,0.00,,,0.00,WeatherCatV1.21B27,2013-09-09 03:57:00,
2013-09-08 21:01:00,78.4,46.9,29.72,NNW,331,0.0,1.0,33,0.00,,,0.00,WeatherCatV1.21B27,2013-09-09 04:01:00,
2013-09-08 21:02:00,78.4,46.9,29.72,NNW,331,0.0,0.0,33,0.00,,,0.00,WeatherCatV1.21B27,2013-09-09 04:02:00,
2013-09-08 21:03:00,78.4,46.9,29.72,NNW,331,0.0,0.0,33,0.00,,,0.00,WeatherCatV1.21B27,2013-09-09 04:03:00,
2013-09-08 21:08:00,78.2,46.7,29.72,NNW,331,0.0,0.0,33,0.00,,,0.00,WeatherCatV1.21B27,2013-09-09 04:08:00,
2013-09-08 21:13:00,78.0,46.5,29.72,NNW,331,0.0,0.0,33,0.00,,,0.00,WeatherCatV1.21B27,2013-09-09 04:13:00,
2013-09-08 21:18:00,77.8,45.6,29.72,NNW,331,0.0,1.0,32,0.00,,,0.00,WeatherCatV1.21B27,2013-09-09 04:18:00,
2013-09-08 21:23:00,77.8,44.7,29.72,NNW,331,0.0,0.0,31,0.00,,,0.00,WeatherCatV1.21B27,2013-09-09 04:23:00,
2013-09-08 21:28:00,77.8,44.7,29.72,NNW,331,0.0,0.0,31,0.00,,,0.00,WeatherCatV1.21B27,2013-09-09 04:28:00,
2013-09-08 21:33:00,77.9,44.8,29.72,NNW,331,0.0,0.0,31,0.00,,,0.00,WeatherCatV1.21B27,2013-09-09 04:33:00,
2013-09-08 21:38:00,77.9,44.8,29.72,NNW,331,0.0,0.0,31,0.00,,,0.00,WeatherCatV1.21B27,2013-09-09 04:38:00,
2013-09-08 21:43:00,77.8,45.6,29.72,NNW,331,0.0,0.0,32,0.00,,,0.00,WeatherCatV1.21B27,2013-09-09 04:43:00,
2013-09-08 21:48:00,77.7,46.3,29.72,NNW,331,0.0,0.0,33,0.00,,,0.00,WeatherCatV1.21B27,2013-09-09 04:48:00,
2013-09-08 21:53:00,77.7,47.1,29.72,NNW,331,0.0,0.0,34,0.00,,,0.00,WeatherCatV1.21B27,2013-09-09 04:53:00,
2013-09-08 21:58:00,77.6,47.8,29.72,NNW,331,0.0,0.0,35,0.00,,,0.00,WeatherCatV1.21B27,2013-09-09 04:58:00,
2013-09-08 22:03:00,77.6,48.5,29.73,NNW,331,0.0,0.0,36,0.00,,,0.00,WeatherCatV1.21B27,2013-09-09 05:03:00,
2013-09-08 22:08:00,77.5,48.4,29.73,NNW,331,0.0,0.0,36,0.00,,,0.00,WeatherCatV1.21B27,2013-09-09 05:08:00,
2013-09-08 22:13:00,77.2,49.6,29.73,NNW,331,0.0,0.0,38,0.00,,,0.00,WeatherCatV1.21B27,2013-09-09 05:13:00,
2013-09-08 22:18:00,76.9,50.0,29.73,NNW,331,0.0,0.0,39,0.00,,,0.00,WeatherCatV1.21B27,2013-09-09 05:18:00,
2013-09-08 22:23:00,76.7,49.9,29.73,NNW,331,0.0,0.0,39,0.00,,,0.00,WeatherCatV1.21B27,2013-09-09 05:23:00,
2013-09-08 22:28:00,76.5,50.4,29.73,NNW,331,0.0,0.0,40,0.00,,,0.00,WeatherCatV1.21B27,2013-09-09 05:28:00,
2013-09-08 22:33:00,76.3,50.2,29.73,NNW,331,0.0,0.0,40,0.00,,,0.00,WeatherCatV1.21B27,2013-09-09 05:33:00,
2013-09-08 22:38:00,76.1,50.7,29.73,NNW,331,0.0,0.0,41,0.00,,,0.00,WeatherCatV1.21B27,2013-09-09 05:38:00,
2013-09-08 22:43:00,76.0,50.6,29.73,NNW,331,0.0,0.0,41,0.00,,,0.00,WeatherCatV1.21B27,2013-09-09 05:43:00,
2013-09-08 22:48:00,75.8,50.4,29.73,NNW,331,0.0,0.0,41,0.00,,,0.00,WeatherCatV1.21B27,2013-09-09 05:48:00,
2013-09-08 22:53:00,75.7,50.3,29.73,NNW,331,0.0,0.0,41,0.00,,,0.00,WeatherCatV1.21B27,2013-09-09 05:53:00,
2013-09-08 22:58:00,75.6,50.2,29.73,NNW,331,0.0,0.0,41,0.00,,,0.00,WeatherCatV1.21B27,2013-09-09 05:58:00,
2013-09-08 23:03:00,75.4,50.7,29.73,NNW,331,0.0,0.0,42,0.00,,,0.00,WeatherCatV1.21B27,2013-09-09 06:03:00,
2013-09-08 23:08:00,75.2,49.9,29.73,NNW,331,0.0,0.0,41,0.00,,,0.00,WeatherCatV1.21B27,2013-09-09 06:08:00,
2013-09-08 23:13:00,75.0,49.7,29.73,NNW,331,0.0,0.0,41,0.00,,,0.00,WeatherCatV1.21B27,2013-09-09 06:13:00,
2013-09-08 23:18:00,74.9,49.6,29.73,NNW,331,0.0,0.0,41,0.00,,,0.00,WeatherCatV1.21B27,2013-09-09 06:18:00,
2013-09-08 23:23:00,74.8,49.5,29.73,NNW,331,0.0,0.0,41,0.00,,,0.00,WeatherCatV1.21B27,2013-09-09 06:23:00,
2013-09-08 23:28:00,74.8,50.2,29.73,NNW,331,0.0,0.0,42,0.00,,,0.00,WeatherCatV1.21B27,2013-09-09 06:28:00,
2013-09-08 23:33:00,74.8,50.2,29.73,NNW,331,0.0,0.0,42,0.00,,,0.00,WeatherCatV1.21B27,2013-09-09 06:33:00,
2013-09-08 23:38:00,74.8,50.2,29.73,NNW,331,0.0,0.0,42,0.00,,,0.00,WeatherCatV1.21B27,2013-09-09 06:38:00,
2013-09-08 23:43:00,74.7,50.7,29.73,NNW,331,0.0,0.0,43,0.00,,,0.00,WeatherCatV1.21B27,2013-09-09 06:43:00,
2013-09-08 23:48:00,74.7,50.7,29.73,NNW,331,0.0,0.0,43,0.00,,,0.00,WeatherCatV1.21B27,2013-09-09 06:48:00,
2013-09-08 23:53:00,74.6,50.6,29.73,NNW,331,0.0,0.0,43,0.00,,,0.00,WeatherCatV1.21B27,2013-09-09 06:53:00,
2013-09-08 23:58:00,74.6,50.6,29.73,NNW,331,0.0,0.0,43,0.00,,,0.00,WeatherCatV1.21B27,2013-09-09 06:58:00,